Flag for Romania Weather past 2 weeks in Timișoara, Romania

Now
54 °F

Clear.


Feels Like: 54 °F
Forecast: 63 / 90 °F
Wind: No wind

Location: Timisoara Airport

Current Time: Aug 1, 2015 at 5:05:31 AM

Latest Report: Aug 1, 2015 at 4:30 AM


Visibility: 10 mi

Pressure: 30.04 "Hg

Humidity: 82%

Dew point: 48 °F

Location of TimișoaraLocation

Historic Weather in Timișoara — Graph

°F

Timișoara temperature yesterday

Maximum temperature yesterday: 79 °F (at 1:30 PM)
Minimum temperature yesterday: 57 °F (at 6:00 AM)
Average temperature yesterday: 69 °F

Past Weeks' High & Low Weather Summary

 TemperatureHumidityPressure
High99 °F (Jul 18, 4:30 PM)100% (Jul 21, 4:00 AM)30.09 "Hg (Jul 21, 4:00 AM)
Low54 °F (Aug 1, 2:30 AM)17% (Jul 23, 4:30 PM)29.71 "Hg (Jul 25, 4:30 PM)
Average78 °F57%29.89 "Hg
* Reported Jul 17 4:00 AM — Aug 1 4:00 AM, Timișoara, Weather by CustomWeather, © 2015

Note: Actual official high and low records may vary slightly from our data, if they occured in-between our weather recording intervals... More about our weather records

Advertising

Timișoara weather history for previous 24 hours

 ConditionsComfort  
Time TempWeatherWind HumidityBarometerVisibility
4:00 AM
Sat, Aug 1
54 °FClear.1 mph82%30.04 "Hg10 mi
3:30 AM54 °FClear.5 mph82%30.04 "Hg10 mi
3:00 AM54 °FClear.6 mph82%30.04 "Hg10 mi
2:30 AM54 °FClear.6 mph88%30.04 "Hg10 mi
2:00 AM57 °FClear.3 mph77%30.04 "Hg10 mi
1:30 AM59 °FClear.2 mph68%30.04 "Hg10 mi
12:30 AM63 °FClear.5 mph56%30.04 "Hg10 mi
12:00 AM63 °FClear.5 mph59%30.04 "Hg10 mi
11:30 PM
Fri, Jul 31
63 °FClear.2 mph59%30.04 "Hg10 mi
11:00 PM63 °FClear.2 mph64%30.04 "Hg10 mi
10:30 PM64 °FClear.3 mph64%30.01 "Hg10 mi
10:00 PM66 °FSunny.5 mph56%30.01 "Hg10 mi
9:30 PM70 °FSunny.3 mph50%30.01 "Hg10 mi
9:00 PM73 °FSunny.5 mph38%29.98 "Hg10 mi
8:30 PM75 °FPassing clouds.5 mph36%29.98 "HgN/A
8:00 PM75 °FSunny.7 mph36%29.98 "Hg10 mi
7:30 PM75 °FSunny.8 mph36%29.98 "Hg10 mi
7:00 PM75 °FSunny.8 mph39%29.98 "Hg10 mi
6:30 PM73 °FSunny.10 mph44%29.98 "Hg10 mi
6:00 PM73 °FPassing clouds.13 mph50%29.98 "HgN/A
5:30 PM75 °FPassing clouds.8 mph50%29.95 "HgN/A
5:00 PM75 °FPassing clouds.9 mph50%29.98 "HgN/A
4:30 PM75 °FPassing clouds.10 mph54%29.98 "HgN/A
4:00 PM75 °FPassing clouds.8 mph47%29.95 "HgN/A
3:30 PM77 °FScattered clouds.9 mph44%29.95 "HgN/A
3:00 PM77 °FScattered clouds.8 mph47%29.95 "HgN/A
2:30 PM77 °FScattered clouds.8 mph44%29.95 "HgN/A
2:00 PM77 °FPassing clouds.10 mph42%29.98 "HgN/A
1:30 PM79 °FPassing clouds.9 mph42%29.98 "HgN/A
1:00 PM77 °FPassing clouds.8 mph44%29.95 "HgN/A
12:30 PM77 °FPassing clouds.7 mph42%29.95 "HgN/A
12:00 PM77 °FPassing clouds.6 mph39%29.95 "HgN/A
11:30 AM77 °FPassing clouds.7 mph42%29.95 "HgN/A
11:00 AM75 °FPassing clouds.6 mph50%29.95 "HgN/A
10:30 AM73 °FSunny.7 mph53%29.95 "Hg10 mi
10:00 AM72 °FPassing clouds.5 mph57%29.92 "HgN/A
9:30 AM70 °FPassing clouds.3 mph60%29.95 "HgN/A
9:00 AM68 °FSunny.2 mph64%29.95 "Hg10 mi
8:30 AM66 °FPassing clouds.3 mph68%29.92 "HgN/A
8:00 AM66 °FPassing clouds.5 mph68%29.92 "HgN/A
7:30 AM63 °FSunny.2 mph83%29.92 "Hg10 mi
7:00 AM59 °FClear.5 mph88%29.92 "Hg10 mi
6:30 AM57 °FClear.7 mph94%29.92 "Hg10 mi
6:00 AM57 °FClear.6 mph94%29.92 "Hg10 mi
5:30 AM59 °FClear.5 mph88%29.92 "Hg10 mi
5:00 AM59 °FPartly cloudy.3 mph88%29.92 "HgN/A
Weather by CustomWeather, © 2015

See weather overviewHow to use our weather pages